AKDT,Max TemperatureF,Mean TemperatureF,Min TemperatureF,Max Dew PointF,MeanDew PointF,Min DewpointF,Max Humidity, Mean Humidity, Min Humidity, Max Sea Level PressureIn, Mean Sea Level PressureIn, Min Sea Level PressureIn, Max VisibilityMiles, Mean VisibilityMiles, Min VisibilityMiles, Max Wind SpeedMPH, Mean Wind SpeedMPH, Max Gust SpeedMPH,PrecipitationIn, CloudCover, Events, WindDirDegrees
2013-9-1,61,58,55,56,55,54,94,91,83,29.89,29.81,29.78,10,10,5,13,10,21,0.05,8,Rain,85
2013-9-2,64,58,53,55,53,49,96,83,65,29.99,29.94,29.88,10,10,9,12,5,,0.00,5,,121
2013-9-3,62,54,46,53,51,46,100,86,72,29.99,29.92,29.85,10,10,10,13,4,25,0.02,5,Rain,91
2013-9-4,61,58,55,56,54,53,94,90,83,29.93,29.86,29.83,10,10,7,17,12,30,0.04,8,Rain,90
2013-9-5,63,58,55,54,52,51,94,83,72,30.21,30.10,29.92,10,10,10,12,7,26,0.00,7,,90
2013-9-6,61,56,53,55,53,52,97,90,82,30.21,30.14,29.97,10,9,4,15,8,28,0.04,8,Rain,105
2013-9-7,63,60,57,58,57,55,93,89,78,29.99,29.84,29.63,10,9,4,18,12,31,0.53,8,Rain,88
2013-9-8,60,57,54,58,52,48,94,86,75,30.10,29.86,29.60,10,9,3,22,15,33,0.57,7,Rain,98
2013-9-9,59,52,46,49,47,45,93,80,67,30.14,30.12,30.10,10,10,10,10,6,21,0.00,5,,81
2013-9-10,55,50,46,50,48,46,97,89,83,30.13,30.09,30.05,10,10,8,10,2,,0.00,8,Rain,118
2013-9-11,64,57,50,56,52,48,100,89,73,30.06,29.98,29.90,10,7,2,17,9,26,0.35,8,Rain,91
2013-9-12,61,56,50,54,51,48,100,91,72,30.08,30.04,29.97,10,10,7,13,7,,0.02,5,Rain,288
2013-9-13,59,52,48,50,48,46,100,89,72,30.12,30.08,30.00,10,9,2,8,2,,0.00,5,,158
2013-9-14,60,52,46,50,48,45,97,85,74,29.99,29.90,29.83,10,10,4,12,3,,0.00,6,,264
2013-9-15,69,59,50,48,47,45,86,66,47,29.82,29.70,29.57,10,10,10,18,14,25,0.01,1,,304
2013-9-16,60,56,51,52,50,45,100,86,56,29.65,29.60,29.56,10,9,4,13,8,22,0.36,8,Rain,75
2013-9-17,54,52,50,49,47,46,93,85,82,29.75,29.68,29.64,10,10,5,14,9,24,0.33,8,Rain,73
2013-9-18,51,48,46,48,46,44,94,87,76,29.81,29.78,29.75,10,10,5,12,7,16,0.16,8,Rain,87
2013-9-19,50,47,44,48,45,43,100,92,86,29.74,29.46,29.24,10,8,3,15,6,22,0.95,8,Rain,305
2013-9-20,54,49,45,52,47,43,100,94,88,29.23,29.17,29.13,10,5,1,15,10,31,1.59,8,Rain,319
2013-9-21,53,50,46,52,46,43,100,86,74,29.27,29.18,29.07,10,10,5,20,11,32,0.33,7,Rain,99
2013-9-22,48,46,44,47,45,43,100,94,89,29.18,29.05,28.98,10,9,5,14,6,,0.39,8,Rain,286
2013-9-23,55,50,46,48,45,42,100,87,69,29.68,29.42,29.19,10,10,2,10,4,20,0.04,8,Rain,97
2013-9-24,55,48,41,46,44,40,97,85,69,30.12,29.94,29.70,10,10,10,6,2,,0.00,6,,110
2013-9-25,52,43,35,45,40,34,100,93,71,30.17,30.12,29.94,10,5,0,14,3,26,0.03,6,Fog-Rain,97
2013-9-26,53,50,48,48,47,45,93,89,82,29.93,29.75,29.64,10,10,7,16,11,26,0.15,8,Rain,89
2013-9-27,48,47,46,46,45,44,96,89,83,29.63,29.39,29.16,10,10,5,17,9,29,0.26,8,Rain,92
2013-9-28,51,48,45,47,44,42,97,89,77,29.15,29.02,28.97,10,10,10,18,12,22,0.23,8,Rain,304
2013-9-29,52,49,46,47,44,42,100,85,69,29.19,29.06,28.98,10,10,10,16,12,17,0.01,7,Rain,305
2013-9-30,57,50,45,49,44,41,93,79,59,29.51,29.37,29.21,10,10,10,13,9,,0.01,6,Rain,299